EW5663 Weather Reports


Display with metric or nautical units.
time (UTC)temp
F
wind
direction
speed
MPH
gust
MPH
rain 1hr
in
rain 24hr
in
rain mn
in
humidity
%
barometer
mb
20260906220006 92 80 2.0 9.0 0.00 0.00 0.00 29 991.7
20260906214503 92 80 2.0 9.0 0.00 0.00 0.00 29 992.0
20260906213101 91 335 1.0 10.0 0.00 0.00 0.00 31 992.2
20260906211602 91 359 3.0 11.0 0.00 0.00 0.00 30 992.4
20260906210105 91 121 6.0 10.0 0.00 0.00 0.00 29 992.7
20260906204601 91 359 1.0 8.0 0.00 0.00 0.00 30 992.8
20260906203100 90 127 2.0 12.0 0.00 0.00 0.00 30 993.1
20260906201549 90 39 1.0 7.0 0.00 0.00 0.00 31 993.2
20260906200046 89 285 2.0 6.0 0.00 0.00 0.00 32 993.5
20260906194542 88 64 0.0 5.0 0.00 0.00 0.00 32 993.7
20260906193041 87 323 3.0 8.0 0.00 0.00 0.00 35 994.0
20260906191536 86 112 1.0 6.0 0.00 0.00 0.00 35 994.2
20260906190034 85 104 1.0 6.0 0.00 0.00 0.00 36 994.3
20260906184530 85 100 0.0 6.0 0.00 0.00 0.00 37 994.7
20260906183026 84 114 2.0 6.0 0.00 0.00 0.00 39 995.1
20260906181536 83 27 1.0 7.0 0.00 0.00 0.00 41 995.4
20260906180033 82 359 2.0 7.0 0.00 0.00 0.00 43 995.6
20260906174516 81 14 1.0 5.0 0.00 0.00 0.00 43 995.9
20260906173013 79 32 0.0 5.0 0.00 0.00 0.00 46 996.3
20260906171510 78 239 0.0 8.0 0.00 0.00 0.00 48 996.5
20260906170007 77 15 2.0 8.0 0.00 0.00 0.00 51 996.9
20260906164505 75 349 1.0 6.0 0.00 0.00 0.00 54 997.0
20260906163005 76 350 0.0 5.0 0.00 0.00 0.00 54 997.0
20260906161502 75 342 2.0 6.0 0.00 0.00 0.00 57 996.9
20260906160100 74 354 0.0 2.0 0.00 0.00 0.00 60 997.0
20260906154558 72 344 1.0 5.0 0.00 0.00 0.00 64 996.9
20260906153058 70 335 1.0 3.0 0.00 0.00 0.00 67 997.0
20260906151602 69 259 0.0 6.0 0.00 0.00 0.00 70 997.2
20260906150110 68 262 0.0 5.0 0.00 0.00 0.00 72 997.2
20260906144556 67 326 1.0 5.0 0.00 0.00 0.00 73 997.1
20260906143057 66 257 1.0 5.0 0.00 0.00 0.00 74 997.1
20260906141556 65 264 1.0 4.0 0.00 0.00 0.00 76 997.2
20260906140100 64 267 1.0 5.0 0.00 0.00 0.00 78 997.3
20260906134553 63 209 0.0 2.0 0.00 0.00 0.00 81 997.3
20260906133112 61 208 0.0 2.0 0.00 0.00 0.00 82 997.1
20260906131550 60 160 0.0 0.0 0.00 0.00 0.00 82 997.1
20260906130105 60 160 0.0 0.0 0.00 0.00 0.00 80 996.9
20260906124547 60 160 0.0 0.0 0.00 0.00 0.00 79 996.7
20260906123046 60 160 0.0 0.0 0.00 0.00 0.00 78 996.7
20260906121545 60 160 0.0 0.0 0.00 0.00 0.00 75 996.8
20260906120043 60 160 0.0 0.0 0.00 0.00 0.00 73 996.8
20260906114547 61 160 0.0 0.0 0.00 0.00 0.00 72 996.8
20260906113041 61 160 0.0 0.0 0.00 0.00 0.00 71 996.7
20260906111545 62 160 0.0 0.0 0.00 0.00 0.00 69 996.5
20260906110035 62 160 0.0 0.0 0.00 0.00 0.00 68 996.4
20260906104534 63 160 0.0 1.0 0.00 0.00 0.00 66 996.3
20260906103029 63 159 0.0 0.0 0.00 0.00 0.00 66 995.9
20260906101528 64 160 0.0 0.0 0.00 0.00 0.00 64 995.9
20260906100035 64 159 0.0 0.0 0.00 0.00 0.00 63 996.1
20260906094529 64 160 0.0 1.0 0.00 0.00 0.00 63 996.0
20260906093028 64 159 0.0 0.0 0.00 0.00 0.00 64 995.8
20260906091525 65 159 0.0 0.0 0.00 0.00 0.00 63 995.8
20260906090018 66 159 0.0 0.0 0.00 0.00 0.00 60 995.7
20260906084515 67 159 0.0 0.0 0.00 0.00 0.00 58 995.5
20260906083012 68 160 0.0 0.0 0.00 0.00 0.00 56 995.5
20260906081512 68 159 0.0 0.0 0.00 0.00 0.00 54 995.7
20260906080007 69 159 0.0 1.0 0.00 0.00 0.00 53 995.8
20260906074506 69 174 0.0 5.0 0.00 0.00 0.00 53 995.5
20260906073004 70 249 0.0 2.0 0.00 0.00 0.00 52 995.3
20260906071502 70 162 0.0 4.0 0.00 0.00 0.00 51 995.3
20260906070100 71 208 0.0 2.0 0.00 0.00 0.00 50 995.2
20260906064555 72 262 0.0 4.0 0.00 0.00 0.00 47 995.1
20260906063052 73 268 2.0 7.0 0.00 0.00 0.00 45 995.3
20260906061549 74 157 0.0 0.0 0.00 0.00 0.00 43 995.6
20260906060045 74 147 0.0 4.0 0.00 0.00 0.00 40 995.9
20260906054557 75 253 0.0 2.0 0.00 0.00 0.00 40 996.2
20260906053044 75 258 3.0 7.0 0.00 0.00 0.00 39 995.9
20260906051603 74 260 0.0 4.0 0.00 0.00 0.00 40 996.1
20260906050045 74 218 1.0 4.0 0.00 0.00 0.00 40 995.9
20260906044550 75 150 0.0 0.0 0.00 0.00 0.00 37 996.0
20260906043045 76 150 0.0 2.0 0.00 0.00 0.00 36 996.1
20260906041540 76 155 0.0 2.0 0.00 0.00 0.00 35 996.0
20260906040116 75 62 0.0 6.0 0.00 0.00 0.00 38 995.7
20260906034538 73 66 0.0 0.0 0.00 0.00 0.00 41 994.8
20260906033051 74 66 0.0 0.0 0.00 0.00 0.00 38 994.7
20260906031537 75 65 0.0 1.0 0.00 0.00 0.00 37 994.6
20260906030038 76 66 0.0 1.0 0.00 0.00 0.00 36 994.2
20260906024536 76 66 0.0 0.0 0.00 0.00 0.00 35 994.0
20260906023036 78 66 0.0 0.0 0.00 0.00 0.00 34 993.9
20260906021536 79 66 0.0 0.0 0.00 0.00 0.00 32 993.9
20260906020036 80 66 0.0 1.0 0.00 0.00 0.00 31 993.7
20260906014535 80 359 1.0 5.0 0.00 0.00 0.00 30 993.4
20260906013035 82 359 0.0 0.0 0.00 0.00 0.00 29 993.0
20260906011534 83 359 0.0 0.0 0.00 0.00 0.00 27 992.9
20260906010034 85 359 0.0 0.0 0.00 0.00 0.00 26 992.9
20260906004532 86 359 0.0 0.0 0.00 0.00 0.00 24 993.0
20260906003032 88 359 0.0 4.0 0.00 0.00 0.00 23 993.0
20260906001534 88 359 0.0 5.0 0.00 0.00 0.00 22 992.9
20260906000032 89 354 1.0 7.0 0.00 0.00 0.00 22 992.7
20260905234531 89 4 0.0 1.0 0.00 0.00 0.00 20 992.8
20260905233031 89 8 2.0 7.0 0.00 0.00 0.00 21 992.7
20260905231531 90 344 1.0 7.0 0.00 0.00 0.00 20 992.6
20260905230029 90 354 1.0 8.0 0.00 0.00 0.00 21 992.7
20260905224603 90 243 1.0 8.0 0.00 0.00 0.00 21 992.6
20260905223024 92 247 3.0 8.0 0.00 0.00 0.00 19 992.6
20260905221522 93 359 0.0 5.0 0.00 0.00 0.00 19 992.7